Regional Weather Roundup
Issued by NWS

Home | Current Version | Previous Version | Text Only | Print | Product List | Glossary On
Versions: 1 2 3 4 5 6 7 8 9 10 11 12 13 14 15 16 17 18 19 20 21 22 23 24 25 26 27 28 29 30 31 32 33 34 35 36 37 38 39 40 41 42 43 44 45 46 47 48 49 50
000
ASUS43 KMKX 160621
RWRWI

WISCONSIN REGIONAL WEATHER ROUNDUP
NATIONAL WEATHER SERVICE MILWAUKEE/SULLIVAN WI
100 AM CDT TUE SEP 16 2014

NOTE: "FAIR" INDICATES FEW OR NO CLOUDS BELOW 12,000 FEET WITH NO
SIGNIFICANT WEATHER AND/OR OBSTRUCTIONS TO VISIBILITY.

WIZ001-002-006>008-014>016-023>028-160700-
NORTHWEST WISCONSIN

CITY           SKY/WX    TMP DP  RH WIND       PRES   REMARKS
SUPERIOR ARPT  CLEAR     41  37  87 SW7       30.15F
6HR MIN TEMP:  41; 6HR MAX TEMP:  54;

ASHLAND        CLEAR     43  37  79 SW7       30.15F
6HR MIN TEMP:  41; 6HR MAX TEMP:  48;

HAYWARD        CLEAR     36  33  89 CALM      30.18S
6HR MIN TEMP:  35; 6HR MAX TEMP:  54;

SIREN          CLEAR     38  36  91 CALM      30.18F
6HR MIN TEMP:  37; 6HR MAX TEMP:  54;

RICE LAKE      CLEAR     38  37  98 CALM      30.21S
6HR MIN TEMP:  38; 6HR MAX TEMP:  53;

LADYSMITH      CLEAR     39  38  93 CALM      30.20F
6HR MIN TEMP:  37; 6HR MAX TEMP:  52;

EAU CLAIRE     CLEAR     43  39  86 CALM      30.20F
6HR MIN TEMP:  40; 6HR MAX TEMP:  54;

MENOMONIE      CLEAR     42  40  91 CALM      30.21S
6HR MIN TEMP:  42; 6HR MAX TEMP:  56;

NEW RICHMOND   CLEAR     38  38 100 CALM      30.21S
6HR MIN TEMP:  38; 6HR MAX TEMP:  54;

OSCEOLA        CLEAR     39  39 100 CALM      30.23S
6HR MIN TEMP:  39; 6HR MAX TEMP:  56;

$$

WIZ003>005-009-010-017-018-160700-
NORTH CENTRAL WISCONSIN

CITY           SKY/WX    TMP DP  RH WIND       PRES   REMARKS
WOODRUFF       CLEAR     38  36  92 CALM      30.15S
6HR MIN TEMP:  37; 6HR MAX TEMP:  52;

RHINELANDER    CLEAR     33  32  96 W7        30.16F WCI  27
6HR MIN TEMP:  32; 6HR MAX TEMP:  51;

EAGLE RIVER    PTCLDY    32  32 100 CALM      30.14S FOG
6HR MIN TEMP:  32; 6HR MAX TEMP:  48;

LAND O LAKES   CLEAR     31  31 100 CALM      30.14F
6HR MIN TEMP:  31; 6HR MAX TEMP:  47;

PHILLIPS       CLEAR     38  35  91 CALM      30.16F
6HR MIN TEMP:  36; 6HR MAX TEMP:  49;

TOMAHAWK       CLEAR     33  32  96 CALM      30.18S
6HR MIN TEMP:  31; 6HR MAX TEMP:  50;

MEDFORD        CLEAR     35  34  96 CALM      30.18F
6HR MIN TEMP:  35; 6HR MAX TEMP:  51;

MERRILL        MOCLDY    35  34  94 CALM      30.18S
6HR MIN TEMP:  35; 6HR MAX TEMP:  53;

$$

WIZ029-030-035-036-043>047-160700-
CENTRAL WISCONSIN

CITY           SKY/WX    TMP DP  RH WIND       PRES   REMARKS
WAUSAU         CLEAR     40  38  93 N3        30.18R
6HR MIN TEMP:  40; 6HR MAX TEMP:  56;

MOSINEE        CLEAR     39  37  93 W6        30.19S WCI  35
MARSHFIELD     CLEAR     40  37  89 W3        30.19S
6HR MIN TEMP:  39; 6HR MAX TEMP:  52;

STEVENS POINT  CLEAR     37  36  96 CALM      30.19S
6HR MIN TEMP:  36; 6HR MAX TEMP:  55;

WAUPACA        CLEAR     44  41  91 CALM      30.19S
6HR MIN TEMP:  44; 6HR MAX TEMP:  58;

WAUTOMA        CLEAR     39  38  97 CALM      30.20S
6HR MIN TEMP:  39; 6HR MAX TEMP:  55;

WISC RAPIDS    CLEAR     37  37 100 CALM      30.21S
6HR MIN TEMP:  38; 6HR MAX TEMP:  53; 6HR PCP: TRACE;

CAMP DOUGLAS   CLEAR     37  37 100 W3        30.21S FOG
6HR MIN TEMP:  37; 6HR MAX TEMP:  56;

$$

WIZ011>013-019>022-031-037>040-048>050-160700-
NORTHEAST WISCONSIN

CITY           SKY/WX    TMP DP  RH WIND       PRES   REMARKS
ANTIGO         CLEAR     35  34  96 CALM      30.17S
6HR MIN TEMP:  35; 6HR MAX TEMP:  51;

STURGEON BAY   MOCLDY    52  41  66 N7        30.15S
6HR MIN TEMP:  50; 6HR MAX TEMP:  55;

GREEN BAY      CLEAR     43  41  93 W3        30.17R
6HR MIN TEMP:  43; 6HR MAX TEMP:  55;

MANITOWOC      CLEAR     48  44  86 NW7       30.16R
6HR MIN TEMP:  48; 6HR MAX TEMP:  55;

APPLETON       CLEAR     43  37  81 NW8       30.18S
CLINTONVILLE   CLEAR     41  37  87 CALM      30.18S
OSHKOSH        CLOUDY    48  43  82 W5        30.18R
6HR MIN TEMP:  48; 6HR MAX TEMP:  55;

$$

WIZ032>034-041-042-053>061-160700-
SOUTHWEST WISCONSIN

CITY           SKY/WX    TMP DP  RH WIND       PRES   REMARKS
LA CROSSE      CLEAR     46  43  89 SE5       30.22S
6HR MIN TEMP:  45; 6HR MAX TEMP:  57;

SPARTA         CLEAR     36  36 100 CALM      30.23S
6HR MIN TEMP:  36; 6HR MAX TEMP:  55;

VIROQUA        FAIR      42  42 100 CALM      30.22S
6HR MIN TEMP:  42; 6HR MAX TEMP:  52;

BOSCOBEL       FOG       44  43  96 S3        30.23S VSB 1/4
6HR MIN TEMP:  43; 6HR MAX TEMP:  56;

PRAIRIE DU CHI CLOUDY    44  42  93 CALM      30.24R
6HR MIN TEMP:  43; 6HR MAX TEMP:  54;

PLATTEVILLE    FAIR      45  44  96 CALM      30.23R
6HR MIN TEMP:  42; 6HR MAX TEMP:  53;

$$

WIZ056-057-062-063-064-067-068-160700-
SOUTH CENTRAL WISCONSIN

CITY           SKY/WX    TMP DP  RH WIND       PRES   REMARKS
BARABOO/DELLS  CLEAR     42  40  94 CALM      30.21R
6HR MIN TEMP:  40; 6HR MAX TEMP:  54;

LONE ROCK      MOCLDY    45  40  82 W6        30.22S HAZE
6HR MIN TEMP:  45; 6HR MAX TEMP:  57;

WATERTOWN      CLEAR     44  44  99 CALM      30.18S
6HR MIN TEMP:  42; 6HR MAX TEMP:  53;

MADISON        CLEAR     43  41  93 CALM      30.20S
6HR MIN TEMP:  42; 6HR MAX TEMP:  52;

MIDDLETON      FAIR      44  44  99 CALM      30.21S
6HR MIN TEMP:  42; 6HR MAX TEMP:  53;

MONROE         CLEAR     46  43  87 W9        30.20S
JANESVILLE     CLEAR     45  43  93 CALM      30.19S
$$

WIZ051-052-058>065-066-070>072-160700-
SOUTHEAST WISCONSIN

CITY           SKY/WX    TMP DP  RH WIND       PRES   REMARKS
MILWAUKEE      CLEAR     49  46  90 W3        30.18R
6HR MIN TEMP:  48; 6HR MAX TEMP:  54;

WAUKESHA       CLEAR     45  43  93 W6        30.18F
MILWAUKEE/TIMM CLEAR     45  43  93 W6        30.18S
RACINE         CLEAR     48  45  89 W7        30.19S
6HR MIN TEMP:  47; 6HR MAX TEMP:  53;

BURLINGTON     CLEAR     40  40 100 CALM      30.18F FOG
6HR MIN TEMP:  38; 6HR MAX TEMP:  50;

KENOSHA        CLEAR     46  45  96 NW6       30.18S
6HR MIN TEMP:  42; 6HR MAX TEMP:  51;

FOND DU LAC    CLEAR     45  41  86 CALM      30.19R
6HR MIN TEMP:  45; 6HR MAX TEMP:  54;

SHEBOYGAN      CLEAR     48  45  89 NW8       30.16R
6HR MIN TEMP:  45; 6HR MAX TEMP:  52;

WEST BEND      CLEAR     46  43  87 W6        30.18R
JUNEAU         CLEAR     45  44  95 CALM      30.19F
6HR MIN TEMP:  43; 6HR MAX TEMP:  52;

$$

LSZ147-162-160700-
LAKE SUPERIOR

STATION/POSITION TIME  TEMP    WIND        PRES    WAVE
                       AIR SEA DIR/SP/G            HT/PER
                 (UTC) (F)     (DEG/KT/KT) (MB)    (FT/S)
W MID LAKE BUOY  0550   50 47  250/ 12/ 14 1019.0F   2/ 4
DEVILS ISLAND    0600   50     230/ 13/ 16 1020.0F
PORT WING        0540   46     190/  7/  9 1020.7F
SAXON HARBOR     0500   45     200/  6/  9 1020.7F
$$

LMZ867-665-643>646-160700-
LAKE MICHIGAN

STATION/POSITION TIME  TEMP    WIND        PRES    WAVE
                       AIR SEA DIR/SP/G            HT/PER
                 (UTC) (F)     (DEG/KT/KT) (MB)    (FT/S)
N MID LAKE BUOY  0550   55 58  350/ 10/ 12 1020.2R   1/ 3
NORTHPORT PIER   0500   55     360/  5/  7 1020.3S
KEWAUNEE LAKESHO 0500                      1019.5
SHEBOYGAN LAKESH 0600   50 51  290/ 11/ 13 1021.8R
PORT WASHINGTON  0500   50     290/  6/  8 1021.7S
ATWATER BUOY     0600   52     260/ 14/ 16 1022.3R
MILWAUKEE LAKESH 0500   51     290/  8/ 10   N/A
S MID LAKE BUOY  0550   58 64  340/  8/ 10 1021.3R   1/ 3
KENOSHA   LAKESH 0600   50     290/ 10/ 13 1021.7R
$$

TC  - TEMPERATURE IN CELSIUS
VSB - VISIBILITY IN STATUTE MILES
WCI - WIND CHILL INDEX
HX  - HEAT INDEX




USA.gov is the U.S. government's official web portal to all federal, state and local government web resources and services.